Location: Grasslands National Park East Block
(49.0708°N, 106.5295°W)
Time: 06:20:24
(UTC-06:00)

Explorer 11/Cluster Stage 4 - Visible Passes

Search period start: 22 September 2019 00:00
Search period end: 02 October 2019 00:00
Orbit: 467 x 1260 km, 28.8° (Epoch: 21 September)

Date Brightness Start Highest point End Pass type
(mag) Time Alt. Az. Time Alt. Az. Time Alt. Az.
25 Sep 9.2 21:12:17 10° S 21:12:58 10° S 21:12:58 10° S visible
26 Sep 9.1 21:00:14 10° SSW 21:02:47 12° S 21:03:04 12° S visible
27 Sep 9.0 20:48:36 10° SSW 20:51:52 13° S 20:53:06 13° SSE visible
28 Sep 9.0 20:37:09 10° SSW 20:40:56 14° S 20:43:05 13° SSE visible
29 Sep 9.0 20:25:50 10° SSW 20:29:59 15° S 20:33:02 12° SSE visible
29 Sep 9.5 22:14:59 10° SW 22:15:10 10° SW 22:15:10 10° SW visible
30 Sep 9.1 20:14:36 10° SSW 20:19:02 16° S 20:22:57 11° SSE visible
30 Sep 9.4 22:04:03 10° SW 22:05:05 11° SSW 22:05:05 11° SSW visible
01 Oct 9.2 20:03:28 10° SW 20:08:02 16° S 20:12:28 10° SSE visible
01 Oct 9.4 21:53:13 10° SW 21:55:00 12° SSW 21:55:00 12° SSW visible
